Belize, Belize

8:24 AM CST on April 30, 2017 (GMT -0600)
Philip S W Goldson International

Weather History for MZBZ - April, 2014

Change the Weather History Date:

Saturday, April 26, 2014

  Actual Average Record
Temperature  
Mean Temperature 83 °F -  
Max Temperature 88 °F 90 °F 95 °F (2003)
Min Temperature 78 °F 76 °F 68 °F (2012)
Cooling Degree Days 18    
Growing Degree Days 33 (Base 50)    
Moisture  
Dew Point 75 °F    
Average Humidity 73    
Maximum Humidity 89    
Minimum Humidity 59    
Precipitation  
Precipitation 0.00 in 0.13 in - ()
Sea Level Pressure  
Sea Level Pressure 29.90 in    
Wind  
Wind Speed 7 mph ()    
Max Wind Speed 13 mph    
Max Gust Speed -    
Visibility 8.3 miles    
Events      
Averages and records for this station are not official NWS values.
T = Trace of Precipitation, MM = Missing Value Source: Averaged Metar Reports

Daily Weather History Graph

Daily Weather History Graph

Search for Another Location

Airport or City:

Trip Planner

Search our weather history database for the weather conditions in past years. The results will help you decide how hot, cold, wet, or windy it might be!

Date:

Astronomy

Apr. 26, 2014 Rise Set
Actual Time 5:29 AM CST 6:12 PM CST
Civil Twilight 5:07 AM CST 6:34 PM CST
Nautical Twilight 4:41 AM CST 7:01 PM CST
Astronomical Twilight 4:14 AM CST 7:27 PM CST
Moon 3:28 AM CST (4/26) 4:01 PM CST (4/26)
Length of Visible Light 13h 27m
Length of Day
12h 42m
Waning Crescent, 8% of the Moon is Illuminated
Apr 26
Waning Crescent
Apr 29
New
May 6
First Quarter
May 14
Full
May 21
Last Quarter

Hourly Weather History & Observations

Time (CST) Temp. Heat Index Dew Point Humidity Pressure Visibility Wind Dir Wind Speed Gust Speed Precip Events Conditions
12:00 AM 81 °F - 76 °F 82% 29.93 in 12 mi East 5.8 mph - -   Partly Cloudy
3:00 AM 80 °F - 75 °F 81% 29.87 in 12 mi ESE 3.5 mph - -   Partly Cloudy
5:00 AM 78.8 °F - 75.2 °F 89% 29.87 in 6.2 mi ESE 3.5 mph - N/A   Partly Cloudy
6:00 AM 79 °F - 76 °F 89% 29.91 in 12 mi ESE 3.5 mph - -   Scattered Clouds
6:00 AM 78.8 °F - 75.2 °F 89% 29.90 in 6.2 mi ESE 3.5 mph - N/A   Partly Cloudy
7:00 AM 82.4 °F 89.5 °F 75.2 °F 79% 29.91 in 6.2 mi East 5.8 mph - N/A   Partly Cloudy
8:00 AM 86.0 °F 95.1 °F 75.2 °F 70% 29.93 in 6.2 mi East 11.5 mph - N/A   Partly Cloudy
9:00 AM 87 °F - 74 °F 59% 29.94 in 12 mi East 10.4 mph - -   Partly Cloudy
9:00 AM 86.0 °F 95.1 °F 75.2 °F 70% 29.93 in 6.2 mi East 10.4 mph - N/A   Scattered Clouds
10:00 AM 87.8 °F 97.6 °F 75.2 °F 66% 29.94 in 6.2 mi East 9.2 mph - N/A   Scattered Clouds
11:00 AM 86.0 °F 95.1 °F 75.2 °F 70% 29.93 in 6.2 mi East 9.2 mph - N/A   Scattered Clouds
12:00 PM 86 °F - 76 °F 66% 29.92 in 12 mi East 10.4 mph - -   Partly Cloudy
12:00 PM 86.0 °F 96.9 °F 77.0 °F 74% 29.91 in 6.2 mi East 10.4 mph - N/A   Scattered Clouds
1:00 PM 87.8 °F 97.6 °F 75.2 °F 66% 29.90 in 6.2 mi East 9.2 mph - N/A   Scattered Clouds
2:00 PM 87.8 °F 97.6 °F 75.2 °F 66% 29.88 in 6.2 mi East 11.5 mph - N/A   Scattered Clouds
3:00 PM 87 °F - 75 °F 60% 29.88 in 12 mi East 12.7 mph - -   Partly Cloudy
3:00 PM 87.8 °F 97.6 °F 75.2 °F 66% 29.87 in 6.2 mi East 12.7 mph - N/A   Mostly Cloudy
4:00 PM 86.0 °F 95.1 °F 75.2 °F 70% 29.87 in 6.2 mi ENE 12.7 mph - N/A   Scattered Clouds
5:00 PM 86.0 °F 95.1 °F 75.2 °F 70% 29.87 in 6.2 mi East 9.2 mph - N/A   Partly Cloudy
6:00 PM 83 °F - 75 °F 70% 29.89 in 11 mi East 9.2 mph - -   Partly Cloudy
6:00 PM 84.2 °F 92.3 °F 75.2 °F 74% 29.88 in 6.2 mi East 9.2 mph - N/A   Scattered Clouds
9:00 PM 81 °F - 75 °F 77% 29.93 in 12 mi East 6.9 mph - -   Scattered Clouds